SCP
0 0 0 0 -0 0 0 0 0 -0 0 0 0 0 -0 0 0 0 0 0 -0 -0 -0 -0 -0 -0 -0 -0 -0 -0 -0 -0 -0 0 0 0 0 0 0 0 0 0 0 0 0 0 0 0 0
0 0 0 0 0 0 0 0 0 0 0 0 0 0 0 0 0 0 -0 -0 -0 -0 -0 -0 -0 -0 -0 -0 0 0 0 0 0 0 0 0 0 0 0 0 0 0 0 0 0 0 0 0 0
0 0 0 0 0 0 0 0 0 0 0 0 0 0 0 0 0 0 0 -0 -0 -0 0 0 -0 -0 -0 -0 0 0 0 0 0 0 0 0 0 0 0 0 0 0 0 0 0 0 0 0 0
0 0 0 0 0 0 0 0 0 0 0 0 0 0 0 0 0 0 -0 -0 -0 0 0 0 0 0 0 0 0 0 0 0 0 0 0 0 0 0 0 0 0 0 0 0 0 0 0 0 0
0 0 0 0 0 0 0 0 0 0 0 0 0 0 0 0 0 0 -0 0 0 0 0 0 0 0 0 0 0 0 0 0 0 0 0 0 0 0 0 0 0 0 0 0 0 0 0 0 0
0 0 0 -0 0 0 0 0 0 0 0 0 0 0 0 0 0 0 0 0 0 0 0 0 0 0 0 0 0 0 0 0 0 0 0 0 0 0 0 0 0 0 0 0 0 0 0 0 0
0 0 0 0 0 0 0 0 0 0 0 0 0 0 0 0 0 0 0 0 0 0 0 0 0 0 0 0 0 0 0 0 0 0 0 0 0 0 0 0 0 0 0 0 0 0 0 0 0
0 0 0 0 0 0 0 0 0 0 0 0 0 0 0 0 0 0 0 0 0 0 0 0 0 0 0 0 0 0 0 0 0 0 0 0 0 0 0 0 0 0 0 0 0 0 0 0 0
0 0 0 0 0 0 0 0 0 0 0 0 0 0 0 0 0 0 0 0 0 0 0 0 0 0 0 0 0 0 0 0 0 0 0 0 0 0 0 0 0 0 0 0 0 0 0 0 0
0 0 0 0 0 0 0 0 0 0 0 0 0 0 0 0 0 0 0 0 0 0 0 0 0 0 0 0 0 0 0 0 0 0 0 0 0 0 0 0 0 0 0 0 0 0 0 0 0
0 0 0 0 0 0 0 0 0 0 0 0 0 0 0 0 0 0 0 0 0 0 0 0 0 0 0 0 0 0 0 0 0 0 0 0 0 0 0 0 0 0 0 0 0 0 0 0 0
0 0 0 0 0 0 0 0 0 0 0 0 0 0 0 0 0 0 0 0 0 0 0 0 0 0 0 0 0 0 0 0 0 0 0 0 0 0 0 0 0 0 0 0 0 0 0 0 0
0 0 0 0 0 0 0 0 0 0 0 0 0 0 0 0 0 0 0 0 0 0 0 0 0 0 0 0 0 0 0 0 0 0 0 0 0 0 0 0 0 0 0 0 0 0 0 0 0
0 0 0 0 0 0 0 0 0 0 0 0 0 0 0 0 0 0 0 0 0 0 0 0 0 0 0 0 0 0 0 0 0 0 0 0 0 0 0 0 0 0 0 0 0 0 0 0 0
0 0 0 0 0 0 0 0 0 0 0 0 0 0 0 0 0 0 0 0 0 0 0 0 0 0 0 0 0 0 0 0 0 0 0 0 0 0 0 0 0 0 0 0 0 0 0 0 0
0 0 0 0 0 0 0 0 0 0 0 0 0 0 0 0 0 0 0 0 0 0 0 0 0 0 0 0 0 0 0 0 0 0 0 0 0 0 0 0 0 0 0 0 0 0 0 0 0
0 0 0 0 0 0 0 0 0 0 0 0 0 0 0 0 0 0 0 0 0 0 0 0 0 0 0 0 0 0 0 0 0 0 0 0 0 0 0 0 0 0 0 0 0 0 0 0 0
0 0 0 0 0 0 0 0 0 0 0 0 0 0 0 0 0 0 0 0 0 0 0 0 0 0 0 0 0 0 0 0 0 0 0 0 0 0 0 0 0 0 0 0 0 0 0 0 0
0 0 0 0 0 0 0 0 0 0 0 0 0 0 0 0 0 0 0 0 0 0 0 0 0 0 0 0 0 0 0 0 0 0 0 0 0 0 0 0 0 0 0 0 0 0 0 0 0
0 0 0 0 0 0 0 0 0 0 0 0 0 0 0 0 0 0 0 0 0 0 0 0 0 0 0 0 0 0 0 0 0 0 0 0 0 0 0 0 0 0 0 0 0 0 0 0 0
0 0 0 0 0 0 0 0 0 0 0 0 0 0 0 0 0 0 0 0 0 0 0 0 0 0 0 0 0 0 0 0 0 0 0 0 0 0 0 0 0 0 0 0 0 0 0 0 0
0 0 0 0 0 0 0 0 0 0 0 0 0 0 0 0 0 0 0 0 0 0 0 0 0 0 0 0 0 0 0 0 0 0 0 0 0 0 0 0 0 0 0 0 0 0 0 0 0
0 0 0 0 0 0 0 0 0 0 0 0 0 0 0 0 0 0 0 0 0 0 0 0 0 0 0 0 0 0 0 0 0 0 0 0 0 0 0 0 0 0 0 0 0 0 0 0 0
0 0 0 0 0 0 0 0 0 0 0 0 0 0 0 0 0 0 0 0 0 0 0 0 0 0 0 0 0 0 0 0 0 0 0 0 0 0 0 0 0 0 0 0 0 0 0 0 0
0 0 0 0 0 0 0 0 0 0 0 0 0 0 0 0 0 0 0 0 0 0 0 0 0 0 0 0 0 0 0 0 0 0 0 0 0 0 0 0 0 0 0 0 0 0 0 0 0
0 0 0 0 0 0 0 0 0 0 0 0 0 0 0 0 0 0 0 0 0 0 0 0 0 0 0 0 0 0 0 0 0 0 0 0 0 0 0 0 0 0 0 0 0 0 0 0 0
0 0 0 0 0 0 0 0 0 0 0 0 0 0 0 0 0 0 0 0 0 0 0 0 0 0 0 0 0 0 0 0 0 0 0 0 0 0 0 0 0 0 0 0 0 0 0 0 0
0 0 0 0 0 0 0 0 0 0 0 0 0 0 0 0 0 0 0 0 0 0 0 0 0 0 0 0 0 0 0 0 0 0 0 0 0 0 0 0 0 0 0 0 0 0 0 0 0
0 0 0 0 0 0 0 0 0 0 0 0 0 0 0 0 0 0 0 0 0 0 0 0 0 0 0 0 0 0 0 0 0 0 0 0 0 0 0 0 0 0 0 0 0 0 0 0 0
0 0 0 0 0 0 0 0 0 0 0 0 0 0 0 0 0 0 0 0 0 0 0 0 0 0 0 0 0 0 0 0 0 0 0 0 0 0 0 0 0 0 0 0 0 0 0 0 0
Wind_Speed_500mb
6 13 20 12 9 8 9 8 4 10 8 7 8 7 9 7 5 3 11 21 29 35 34 36 35 29 24 17 13 11 10 7 3 1 1 1 1 1 3 6 12 13 10 11 16 18 14 17 21
12 19 15 4 10 14 10 9 16 14 4 7 8 6 7 3 2 1 13 20 34 32 29 34 30 26 22 21 17 14 12 9 6 3 1 1 2 2 2 3 9 15 19 20 20 19 18 20 19
16 23 8 7 8 17 5 10 10 4 8 10 8 8 3 3 6 7 7 23 35 33 28 25 22 22 22 20 19 17 14 11 8 5 2 2 4 5 5 7 9 11 14 17 21 23 26 29 26
14 6 2 11 22 12 7 4 5 5 7 12 7 7 4 11 9 13 14 25 32 32 25 21 20 22 22 20 19 17 15 11 9 7 7 7 9 12 14 15 15 16 17 20 22 25 23 25 31
21 5 11 13 24 9 12 11 10 8 4 9 9 4 4 10 12 12 16 26 31 32 27 23 23 22 21 20 20 18 16 14 11 11 11 13 15 18 20 20 20 21 22 23 24 25 27 27 28
12 4 14 22 30 9 11 20 16 23 16 8 9 7 4 9 16 18 23 30 32 30 28 26 26 24 23 22 20 17 14 12 12 13 15 17 19 19 21 22 23 22 22 24 26 28 30 31 33
10 9 17 22 23 15 8 11 21 21 20 24 6 11 5 13 19 22 29 34 34 33 30 28 26 27 25 24 21 17 16 16 15 16 18 17 18 19 20 22 23 25 27 28 28 28 29 30 31
14 8 10 14 20 21 5 10 6 18 15 11 15 13 10 17 22 25 31 36 37 35 33 32 29 30 30 28 25 22 20 20 20 20 19 18 18 19 19 21 22 24 27 30 32 32 32 32 34
12 11 20 21 16 9 10 12 7 6 7 11 14 5 15 15 22 29 35 40 41 41 38 35 34 32 31 30 26 25 24 23 22 21 21 20 20 20 21 22 25 27 29 32 33 34 34 35 36
18 12 23 14 16 8 8 12 10 9 11 15 12 18 17 17 24 33 39 42 43 42 39 37 35 33 32 31 29 27 25 24 22 21 21 21 22 23 24 26 28 30 32 33 36 37 37 36 36
16 20 20 14 20 12 10 10 11 12 15 23 20 19 24 24 29 36 39 39 37 36 36 36 35 33 33 32 30 28 26 24 24 24 24 24 24 25 26 28 31 33 35 36 37 38 39 39 39
13 25 18 9 18 13 13 8 11 28 25 15 19 20 24 27 31 37 39 39 39 39 39 37 36 34 34 32 31 29 28 27 26 26 25 25 26 28 30 33 35 36 37 38 38 39 40 41 41
24 18 20 24 15 20 12 23 19 33 27 30 32 31 29 25 28 31 35 39 40 40 40 40 38 36 35 34 33 31 29 28 26 26 26 27 29 32 34 36 38 41 42 41 40 40 41 40 40
19 26 19 18 26 21 21 23 14 24 30 45 41 37 41 39 38 41 44 44 45 42 43 43 41 40 37 36 34 32 30 28 27 27 28 30 32 34 37 38 40 42 42 43 42 41 40 38 37
8 11 14 29 25 15 22 20 34 44 25 24 29 30 30 30 31 33 38 46 47 47 44 47 46 45 42 39 37 34 32 29 27 28 29 31 34 35 37 40 41 42 41 40 41 41 39 36 32
10 6 17 5 26 15 28 38 16 26 37 34 32 27 31 30 29 29 31 36 44 50 53 50 51 50 47 44 40 37 33 31 29 28 31 33 35 37 40 41 42 41 40 39 37 37 35 33 31
13 23 27 12 28 14 31 16 10 15 32 34 35 30 31 33 35 36 38 42 44 46 51 55 56 55 52 48 43 39 35 33 31 31 33 35 39 41 42 43 43 40 39 39 37 35 33 30 29
28 21 19 26 17 22 25 34 12 25 27 32 32 28 31 35 38 40 43 48 49 50 49 53 57 56 54 49 45 41 38 36 35 36 38 41 44 47 46 43 40 39 39 38 37 35 31 29 26
23 32 34 19 13 17 33 34 34 37 34 36 36 33 31 31 32 30 28 29 37 46 49 53 55 56 54 50 45 43 40 38 39 41 43 46 48 42 39 40 41 40 39 38 36 32 28 26 21
29 28 29 8 11 14 15 33 30 33 44 57 53 45 37 32 32 27 22 20 22 29 40 45 50 50 49 47 43 41 39 41 43 45 46 46 43 42 43 43 44 43 39 37 33 29 25 24 18
43 46 36 28 7 8 14 42 37 30 44 40 34 41 38 39 38 32 25 21 20 23 28 35 40 42 43 42 41 41 41 44 45 47 47 46 47 49 49 47 44 42 38 36 32 28 24 20 18
38 31 30 23 8 22 4 24 28 22 26 23 35 40 42 40 36 33 30 26 23 24 26 29 33 36 37 38 39 40 42 43 46 45 49 51 51 51 51 48 43 40 37 35 32 30 25 21 18
21 6 16 22 28 18 24 11 19 11 20 31 32 42 42 40 41 38 34 30 27 26 26 28 30 32 34 37 40 42 43 46 48 49 48 49 49 47 48 44 40 37 35 34 32 31 29 26 25
27 16 10 6 8 14 26 28 43 24 17 12 36 48 45 41 40 37 33 31 29 29 29 29 30 32 35 36 38 40 42 44 44 43 44 43 44 43 42 39 37 36 34 33 33 30 28 26 25
19 23 8 10 11 14 12 24 50 4 10 9 32 51 47 45 39 36 34 32 31 30 30 29 30 31 33 35 38 39 39 41 41 40 40 39 38 38 38 36 36 35 35 34 33 31 29 27 25
42 26 12 17 15 9 10 23 17 2 6 8 24 48 47 41 36 35 34 33 32 31 30 30 30 30 33 34 35 37 37 38 38 38 38 37 37 36 37 37 38 38 39 37 36 33 31 29 27
13 18 3 11 4 4 12 14 24 16 9 10 29 47 43 37 37 36 33 31 29 28 27 26 27 28 30 32 33 35 36 36 36 38 38 38 37 38 37 38 40 41 40 39 37 36 32 31 29
12 25 7 7 15 12 13 14 16 16 23 22 28 44 41 34 35 34 30 27 24 22 21 21 23 26 28 29 31 33 34 35 36 37 35 35 35 35 37 38 37 36 35 35 35 34 32 32 29
13 12 10 7 6 12 9 11 4 3 27 32 30 40 42 40 38 33 28 23 19 16 16 18 20 23 26 28 29 30 32 33 34 33 32 32 33 30 30 31 32 32 32 32 33 33 32 30 26
11 10 16 12 12 5 4 11 2 1 1 22 31 37 41 42 38 31 25 20 16 13 13 15 17 19 23 26 27 27 30 30 30 30 27 26 24 27 26 30 32 33 33 31 31 30 28 27 23
Wind_Direction_500mb
193 160 154 150 216 239 232 225 287 206 203 188 151 206 229 327 263 3 179 176 170 165 171 186 198 209 205 188 182 175 169 173 176 193 358 358 323 324 253 235 211 211 223 221 225 223 223 241 231
174 155 155 204 245 222 211 192 212 220 94 168 178 185 220 189 247 317 144 173 165 164 169 196 201 206 198 193 185 179 173 180 180 186 158 55 30 357 306 270 240 239 237 239 245 254 251 242 224
174 163 191 235 237 233 245 205 208 219 212 187 188 213 243 147 197 170 202 176 171 172 179 196 198 194 192 192 187 182 182 188 197 213 231 312 326 324 300 286 278 272 259 251 255 256 251 256 258
163 194 118 244 237 251 252 109 165 196 180 213 221 205 203 199 169 190 182 179 179 183 190 205 206 201 198 196 191 187 189 191 208 231 262 285 297 302 301 297 289 282 278 277 271 269 270 265 264
165 219 234 248 249 251 242 253 209 217 194 196 198 183 188 206 198 191 189 181 184 188 195 208 201 203 201 197 198 198 200 205 221 245 269 286 294 295 293 291 288 285 280 276 274 272 273 272 266
163 198 237 244 245 240 247 237 223 234 242 197 208 214 179 196 193 195 186 185 186 195 199 207 203 203 203 206 209 212 219 233 248 267 279 286 289 292 294 294 291 288 285 281 280 280 278 274 273
199 202 253 267 268 272 228 194 223 229 223 212 197 209 185 193 192 187 185 188 193 199 206 209 208 208 212 215 220 225 235 246 259 269 276 276 278 282 285 287 289 290 289 286 282 278 276 275 272
188 213 221 235 257 271 191 201 254 223 214 195 190 216 176 198 187 190 191 195 201 206 209 211 213 212 217 222 226 233 244 256 265 269 271 275 279 282 282 284 286 288 289 288 286 284 281 279 275
172 225 234 234 222 248 170 213 204 241 246 202 202 202 172 176 188 196 201 204 207 210 212 215 217 219 223 230 232 237 245 253 259 264 271 277 281 284 286 289 290 290 291 292 291 289 285 282 278
212 229 229 229 224 236 195 222 187 206 209 237 226 218 214 209 209 209 210 211 214 215 215 217 219 222 225 231 235 240 246 252 259 264 270 276 281 285 289 291 294 297 298 296 295 294 291 286 281
192 239 222 218 220 228 232 225 204 218 216 220 229 219 229 219 218 216 218 220 224 223 222 221 222 225 228 232 239 245 250 253 256 260 265 270 276 282 287 291 295 298 299 298 296 294 292 289 286
204 235 205 199 205 191 228 229 232 226 244 205 224 216 234 234 226 225 221 221 223 222 226 224 226 228 231 236 241 245 247 251 256 262 268 275 282 287 291 295 298 299 299 299 297 294 292 291 288
218 208 203 222 208 218 220 233 247 251 241 242 238 229 228 226 228 222 220 221 225 227 230 230 230 230 231 233 237 241 245 252 259 266 272 279 284 288 292 295 298 301 302 301 299 297 294 290 287
211 220 213 219 217 222 215 240 203 251 235 229 229 228 242 241 232 229 227 229 231 232 232 233 232 232 232 234 236 240 247 255 262 269 277 281 283 286 289 292 295 297 299 300 299 297 295 291 286
164 239 231 226 220 218 213 235 232 248 213 189 201 212 212 214 218 221 224 228 231 234 232 233 233 232 232 234 236 240 248 253 260 270 279 285 287 287 288 291 294 295 296 297 299 299 297 292 286
206 222 245 175 192 196 182 259 238 202 202 204 201 208 211 213 216 219 223 227 230 231 230 229 229 230 231 233 235 239 245 251 260 273 285 290 291 291 292 292 294 295 296 296 297 296 293 289 284
201 245 229 240 195 157 202 244 195 180 193 201 199 208 217 223 230 235 238 239 235 234 230 228 225 227 229 231 234 239 245 251 260 271 282 288 291 293 293 293 292 292 294 297 295 292 289 283 278
222 228 233 229 188 205 205 240 193 198 191 199 205 216 225 232 238 243 244 242 236 233 230 226 224 224 226 229 233 239 245 251 262 274 283 289 292 293 290 288 288 291 293 294 293 290 284 280 275
267 239 241 231 181 211 226 242 239 220 217 219 221 220 221 225 228 228 230 232 231 227 226 224 222 221 223 227 230 238 246 255 265 274 283 288 290 288 287 288 289 290 291 290 288 284 280 276 271
226 237 231 247 165 215 253 254 244 242 233 230 227 220 212 206 207 204 204 206 209 211 214 214 216 218 221 226 233 241 249 258 267 275 281 284 283 283 284 285 286 288 288 285 280 276 273 269 262
232 236 241 243 165 241 288 273 241 237 237 232 228 218 205 201 195 192 187 181 179 184 193 200 207 212 219 227 235 244 253 263 271 278 281 280 280 281 281 281 281 282 281 278 274 268 262 259 260
229 220 237 232 213 248 226 278 235 211 220 215 209 194 190 188 189 190 188 183 178 177 181 190 201 211 220 229 238 249 259 266 271 275 278 279 279 278 278 278 277 275 273 270 266 264 258 253 246
230 29 229 229 236 268 224 256 249 168 230 222 203 196 190 186 188 189 190 191 194 195 197 201 208 218 229 239 248 256 262 268 272 276 277 278 278 276 275 274 273 269 266 264 261 259 256 252 246
146 113 93 113 176 224 219 212 268 215 207 211 192 188 180 177 180 185 191 196 201 206 211 218 225 233 241 250 256 261 266 270 273 276 277 277 277 275 271 269 266 262 260 260 261 259 256 252 249
161 144 153 189 201 235 159 197 246 308 193 190 185 181 177 177 181 189 195 199 204 209 216 224 232 239 247 254 259 264 268 270 271 273 274 275 275 273 269 266 262 259 259 260 261 259 255 250 249
188 183 182 209 199 193 153 222 243 271 92 173 175 168 168 174 184 188 193 200 207 213 221 228 237 243 251 256 261 264 264 266 270 272 272 271 271 269 269 267 263 263 262 260 258 255 252 251 252
168 214 107 107 13 183 203 259 273 191 166 163 161 162 170 176 183 190 195 201 207 213 221 229 238 246 253 257 260 263 264 267 268 267 269 271 270 269 266 266 266 265 262 256 252 251 251 251 254
197 137 146 180 172 220 217 263 247 204 192 170 170 172 173 174 180 181 180 184 191 204 219 232 244 250 255 259 262 265 266 268 269 269 269 270 268 268 270 268 266 262 256 252 249 249 249 252 256
155 177 186 162 197 213 246 241 214 226 183 176 177 174 172 175 177 175 175 177 185 201 220 236 243 249 255 259 262 266 268 266 267 268 268 269 268 265 265 266 261 255 251 249 247 247 248 250 250
227 213 179 197 187 253 5 271 92 63 219 175 169 170 174 176 175 175 177 184 196 214 231 244 253 254 258 262 262 262 265 264 265 263 261 262 263 267 266 260 259 255 250 248 246 244 245 244 237
Wind_Speed_850mb
6 13 20 12 9 8 9 8 4 10 8 7 8 7 9 7 5 3 11 21 29 35 34 36 35 29 24 17 13 11 10 7 3 1 1 1 1 1 3 6 12 13 10 11 16 18 14 17 21
12 19 15 4 10 14 10 9 16 14 4 7 8 6 7 3 2 1 13 20 34 32 29 34 30 26 22 21 17 14 12 9 6 3 1 1 2 2 2 3 9 15 19 20 20 19 18 20 19
16 23 8 7 8 17 5 10 10 4 8 10 8 8 3 3 6 7 7 23 35 33 28 25 22 22 22 20 19 17 14 11 8 5 2 2 4 5 5 7 9 11 14 17 21 23 26 29 26
14 6 2 11 22 12 7 4 5 5 7 12 7 7 4 11 9 13 14 25 32 32 25 21 20 22 22 20 19 17 15 11 9 7 7 7 9 12 14 15 15 16 17 20 22 25 23 25 31
21 5 11 13 24 9 12 11 10 8 4 9 9 4 4 10 12 12 16 26 31 32 27 23 23 22 21 20 20 18 16 14 11 11 11 13 15 18 20 20 20 21 22 23 24 25 27 27 28
12 4 14 22 30 9 11 20 16 23 16 8 9 7 4 9 16 18 23 30 32 30 28 26 26 24 23 22 20 17 14 12 12 13 15 17 19 19 21 22 23 22 22 24 26 28 30 31 33
10 9 17 22 23 15 8 11 21 21 20 24 6 11 5 13 19 22 29 34 34 33 30 28 26 27 25 24 21 17 16 16 15 16 18 17 18 19 20 22 23 25 27 28 28 28 29 30 31
14 8 10 14 20 21 5 10 6 18 15 11 15 13 10 17 22 25 31 36 37 35 33 32 29 30 30 28 25 22 20 20 20 20 19 18 18 19 19 21 22 24 27 30 32 32 32 32 34
12 11 20 21 16 9 10 12 7 6 7 11 14 5 15 15 22 29 35 40 41 41 38 35 34 32 31 30 26 25 24 23 22 21 21 20 20 20 21 22 25 27 29 32 33 34 34 35 36
18 12 23 14 16 8 8 12 10 9 11 15 12 18 17 17 24 33 39 42 43 42 39 37 35 33 32 31 29 27 25 24 22 21 21 21 22 23 24 26 28 30 32 33 36 37 37 36 36
16 20 20 14 20 12 10 10 11 12 15 23 20 19 24 24 29 36 39 39 37 36 36 36 35 33 33 32 30 28 26 24 24 24 24 24 24 25 26 28 31 33 35 36 37 38 39 39 39
13 25 18 9 18 13 13 8 11 28 25 15 19 20 24 27 31 37 39 39 39 39 39 37 36 34 34 32 31 29 28 27 26 26 25 25 26 28 30 33 35 36 37 38 38 39 40 41 41
24 18 20 24 15 20 12 23 19 33 27 30 32 31 29 25 28 31 35 39 40 40 40 40 38 36 35 34 33 31 29 28 26 26 26 27 29 32 34 36 38 41 42 41 40 40 41 40 40
19 26 19 18 26 21 21 23 14 24 30 45 41 37 41 39 38 41 44 44 45 42 43 43 41 40 37 36 34 32 30 28 27 27 28 30 32 34 37 38 40 42 42 43 42 41 40 38 37
8 11 14 29 25 15 22 20 34 44 25 24 29 30 30 30 31 33 38 46 47 47 44 47 46 45 42 39 37 34 32 29 27 28 29 31 34 35 37 40 41 42 41 40 41 41 39 36 32
10 6 17 5 26 15 28 38 16 26 37 34 32 27 31 30 29 29 31 36 44 50 53 50 51 50 47 44 40 37 33 31 29 28 31 33 35 37 40 41 42 41 40 39 37 37 35 33 31
13 23 27 12 28 14 31 16 10 15 32 34 35 30 31 33 35 36 38 42 44 46 51 55 56 55 52 48 43 39 35 33 31 31 33 35 39 41 42 43 43 40 39 39 37 35 33 30 29
28 21 19 26 17 22 25 34 12 25 27 32 32 28 31 35 38 40 43 48 49 50 49 53 57 56 54 49 45 41 38 36 35 36 38 41 44 47 46 43 40 39 39 38 37 35 31 29 26
23 32 34 19 13 17 33 34 34 37 34 36 36 33 31 31 32 30 28 29 37 46 49 53 55 56 54 50 45 43 40 38 39 41 43 46 48 42 39 40 41 40 39 38 36 32 28 26 21
29 28 29 8 11 14 15 33 30 33 44 57 53 45 37 32 32 27 22 20 22 29 40 45 50 50 49 47 43 41 39 41 43 45 46 46 43 42 43 43 44 43 39 37 33 29 25 24 18
43 46 36 28 7 8 14 42 37 30 44 40 34 41 38 39 38 32 25 21 20 23 28 35 40 42 43 42 41 41 41 44 45 47 47 46 47 49 49 47 44 42 38 36 32 28 24 20 18
38 31 30 23 8 22 4 24 28 22 26 23 35 40 42 40 36 33 30 26 23 24 26 29 33 36 37 38 39 40 42 43 46 45 49 51 51 51 51 48 43 40 37 35 32 30 25 21 18
21 6 16 22 28 18 24 11 19 11 20 31 32 42 42 40 41 38 34 30 27 26 26 28 30 32 34 37 40 42 43 46 48 49 48 49 49 47 48 44 40 37 35 34 32 31 29 26 25
27 16 10 6 8 14 26 28 43 24 17 12 36 48 45 41 40 37 33 31 29 29 29 29 30 32 35 36 38 40 42 44 44 43 44 43 44 43 42 39 37 36 34 33 33 30 28 26 25
19 23 8 10 11 14 12 24 50 4 10 9 32 51 47 45 39 36 34 32 31 30 30 29 30 31 33 35 38 39 39 41 41 40 40 39 38 38 38 36 36 35 35 34 33 31 29 27 25
42 26 12 17 15 9 10 23 17 2 6 8 24 48 47 41 36 35 34 33 32 31 30 30 30 30 33 34 35 37 37 38 38 38 38 37 37 36 37 37 38 38 39 37 36 33 31 29 27
13 18 3 11 4 4 12 14 24 16 9 10 29 47 43 37 37 36 33 31 29 28 27 26 27 28 30 32 33 35 36 36 36 38 38 38 37 38 37 38 40 41 40 39 37 36 32 31 29
12 25 7 7 15 12 13 14 16 16 23 22 28 44 41 34 35 34 30 27 24 22 21 21 23 26 28 29 31 33 34 35 36 37 35 35 35 35 37 38 37 36 35 35 35 34 32 32 29
13 12 10 7 6 12 9 11 4 3 27 32 30 40 42 40 38 33 28 23 19 16 16 18 20 23 26 28 29 30 32 33 34 33 32 32 33 30 30 31 32 32 32 32 33 33 32 30 26
11 10 16 12 12 5 4 11 2 1 1 22 31 37 41 42 38 31 25 20 16 13 13 15 17 19 23 26 27 27 30 30 30 30 27 26 24 27 26 30 32 33 33 31 31 30 28 27 23
Wind_Direction_850mb
193 160 154 150 216 239 232 225 287 206 203 188 151 206 229 327 263 3 179 176 170 165 171 186 198 209 205 188 182 175 169 173 176 193 358 358 323 324 253 235 211 211 223 221 225 223 223 241 231
174 155 155 204 245 222 211 192 212 220 94 168 178 185 220 189 247 317 144 173 165 164 169 196 201 206 198 193 185 179 173 180 180 186 158 55 30 357 306 270 240 239 237 239 245 254 251 242 224
174 163 191 235 237 233 245 205 208 219 212 187 188 213 243 147 197 170 202 176 171 172 179 196 198 194 192 192 187 182 182 188 197 213 231 312 326 324 300 286 278 272 259 251 255 256 251 256 258
163 194 118 244 237 251 252 109 165 196 180 213 221 205 203 199 169 190 182 179 179 183 190 205 206 201 198 196 191 187 189 191 208 231 262 285 297 302 301 297 289 282 278 277 271 269 270 265 264
165 219 234 248 249 251 242 253 209 217 194 196 198 183 188 206 198 191 189 181 184 188 195 208 201 203 201 197 198 198 200 205 221 245 269 286 294 295 293 291 288 285 280 276 274 272 273 272 266
163 198 237 244 245 240 247 237 223 234 242 197 208 214 179 196 193 195 186 185 186 195 199 207 203 203 203 206 209 212 219 233 248 267 279 286 289 292 294 294 291 288 285 281 280 280 278 274 273
199 202 253 267 268 272 228 194 223 229 223 212 197 209 185 193 192 187 185 188 193 199 206 209 208 208 212 215 220 225 235 246 259 269 276 276 278 282 285 287 289 290 289 286 282 278 276 275 272
188 213 221 235 257 271 191 201 254 223 214 195 190 216 176 198 187 190 191 195 201 206 209 211 213 212 217 222 226 233 244 256 265 269 271 275 279 282 282 284 286 288 289 288 286 284 281 279 275
172 225 234 234 222 248 170 213 204 241 246 202 202 202 172 176 188 196 201 204 207 210 212 215 217 219 223 230 232 237 245 253 259 264 271 277 281 284 286 289 290 290 291 292 291 289 285 282 278
212 229 229 229 224 236 195 222 187 206 209 237 226 218 214 209 209 209 210 211 214 215 215 217 219 222 225 231 235 240 246 252 259 264 270 276 281 285 289 291 294 297 298 296 295 294 291 286 281
192 239 222 218 220 228 232 225 204 218 216 220 229 219 229 219 218 216 218 220 224 223 222 221 222 225 228 232 239 245 250 253 256 260 265 270 276 282 287 291 295 298 299 298 296 294 292 289 286
204 235 205 199 205 191 228 229 232 226 244 205 224 216 234 234 226 225 221 221 223 222 226 224 226 228 231 236 241 245 247 251 256 262 268 275 282 287 291 295 298 299 299 299 297 294 292 291 288
218 208 203 222 208 218 220 233 247 251 241 242 238 229 228 226 228 222 220 221 225 227 230 230 230 230 231 233 237 241 245 252 259 266 272 279 284 288 292 295 298 301 302 301 299 297 294 290 287
211 220 213 219 217 222 215 240 203 251 235 229 229 228 242 241 232 229 227 229 231 232 232 233 232 232 232 234 236 240 247 255 262 269 277 281 283 286 289 292 295 297 299 300 299 297 295 291 286
164 239 231 226 220 218 213 235 232 248 213 189 201 212 212 214 218 221 224 228 231 234 232 233 233 232 232 234 236 240 248 253 260 270 279 285 287 287 288 291 294 295 296 297 299 299 297 292 286
206 222 245 175 192 196 182 259 238 202 202 204 201 208 211 213 216 219 223 227 230 231 230 229 229 230 231 233 235 239 245 251 260 273 285 290 291 291 292 292 294 295 296 296 297 296 293 289 284
201 245 229 240 195 157 202 244 195 180 193 201 199 208 217 223 230 235 238 239 235 234 230 228 225 227 229 231 234 239 245 251 260 271 282 288 291 293 293 293 292 292 294 297 295 292 289 283 278
222 228 233 229 188 205 205 240 193 198 191 199 205 216 225 232 238 243 244 242 236 233 230 226 224 224 226 229 233 239 245 251 262 274 283 289 292 293 290 288 288 291 293 294 293 290 284 280 275
267 239 241 231 181 211 226 242 239 220 217 219 221 220 221 225 228 228 230 232 231 227 226 224 222 221 223 227 230 238 246 255 265 274 283 288 290 288 287 288 289 290 291 290 288 284 280 276 271
226 237 231 247 165 215 253 254 244 242 233 230 227 220 212 206 207 204 204 206 209 211 214 214 216 218 221 226 233 241 249 258 267 275 281 284 283 283 284 285 286 288 288 285 280 276 273 269 262
232 236 241 243 165 241 288 273 241 237 237 232 228 218 205 201 195 192 187 181 179 184 193 200 207 212 219 227 235 244 253 263 271 278 281 280 280 281 281 281 281 282 281 278 274 268 262 259 260
229 220 237 232 213 248 226 278 235 211 220 215 209 194 190 188 189 190 188 183 178 177 181 190 201 211 220 229 238 249 259 266 271 275 278 279 279 278 278 278 277 275 273 270 266 264 258 253 246
230 29 229 229 236 268 224 256 249 168 230 222 203 196 190 186 188 189 190 191 194 195 197 201 208 218 229 239 248 256 262 268 272 276 277 278 278 276 275 274 273 269 266 264 261 259 256 252 246
146 113 93 113 176 224 219 212 268 215 207 211 192 188 180 177 180 185 191 196 201 206 211 218 225 233 241 250 256 261 266 270 273 276 277 277 277 275 271 269 266 262 260 260 261 259 256 252 249
161 144 153 189 201 235 159 197 246 308 193 190 185 181 177 177 181 189 195 199 204 209 216 224 232 239 247 254 259 264 268 270 271 273 274 275 275 273 269 266 262 259 259 260 261 259 255 250 249
188 183 182 209 199 193 153 222 243 271 92 173 175 168 168 174 184 188 193 200 207 213 221 228 237 243 251 256 261 264 264 266 270 272 272 271 271 269 269 267 263 263 262 260 258 255 252 251 252
168 214 107 107 13 183 203 259 273 191 166 163 161 162 170 176 183 190 195 201 207 213 221 229 238 246 253 257 260 263 264 267 268 267 269 271 270 269 266 266 266 265 262 256 252 251 251 251 254
197 137 146 180 172 220 217 263 247 204 192 170 170 172 173 174 180 181 180 184 191 204 219 232 244 250 255 259 262 265 266 268 269 269 269 270 268 268 270 268 266 262 256 252 249 249 249 252 256
155 177 186 162 197 213 246 241 214 226 183 176 177 174 172 175 177 175 175 177 185 201 220 236 243 249 255 259 262 266 268 266 267 268 268 269 268 265 265 266 261 255 251 249 247 247 248 250 250
227 213 179 197 187 253 5 271 92 63 219 175 169 170 174 176 175 175 177 184 196 214 231 244 253 254 258 262 262 262 265 264 265 263 261 262 263 267 266 260 259 255 250 248 246 244 245 244 237